{"data":{"norad_id":61566,"intl_designator":"2024-185Q","name":"QIANFAN-33","alt_names":[],"object_type":"PAYLOAD","status":"ACTIVE","operator":null,"country":"PRC","launch_date":"2024-10-15","launch_site_code":"TAISC","launch_vehicle":null,"mission":null,"orbit_class":"UNKNOWN","rcs_meters":null,"size_class":null,"mass_kg":null,"dimensions":null,"purposes":[],"wikipedia_slug":null,"has_3d_model":false,"image_url":null,"decayed_at":null,"tle_current":{"epoch":"2026-05-25T02:43:40.401984Z","epoch_age_seconds":66043,"freshness":"FRESH","line1":"1 61566U 24185Q   26145.11366206  .00000337  00000+0  23370-3 0  9997","line2":"2 61566  88.9831  60.5805 0007483 157.6139 202.5366 13.96689040 91966","mean_motion":13.9668904,"eccentricity":0.0007483,"inclination_deg":88.9831,"raan_deg":60.5805,"arg_perigee_deg":157.6139,"mean_anomaly_deg":202.5366,"bstar":0.0002337,"rev_number":9196,"period_min":103.10097371423,"perigee_km":899.83287542747,"apogee_km":910.73324188725,"semimajor_km":7283.4200586574,"source":"CELESTRAK","updated_at":"2026-05-25T13:38:02.416671Z"}}}